This demonstration page uses our WeatherBlox Daily Observations layout. Learn more.

Left ArrowRight Arrow

Hourly Observations for September 21, 2021

Temp ( °F °C ) Dew Point ( °F °C ) Humidity (%) Winds ( mph kmh ) Pressure ( in mb ) Visibility ( mi km ) Precip ( " mm )
12:51 am 00:51 Clear 66 18.9 40 4.4 39 39 NW 3 6 29.95 1014 10 16 N/A
1:51 am 01:51 Clear 64 17.8 41 5 43 43 NNE 5 7 29.96 1014 10 16 N/A
2:51 am 02:51 Clear 66 18.9 40 4.4 39 39 NNW 6 9 29.95 1014 10 16 N/A
3:51 am 03:51 Clear 59 15 41 5 51 51 N N/A 29.98 1015 10 16 N/A
4:51 am 04:51 Clear 59 15 41 5 51 51 SSE 3 6 30.01 1016 10 16 N/A
5:51 am 05:51 Clear 57 13.9 41 5 55 55 ESE 3 6 30.05 1018 10 16 N/A
6:51 am 06:51 Sunny 62 16.7 42 5.6 48 48 ESE 5 7 30.07 1018 10 16 N/A
7:51 am 07:51 Sunny 70 21.1 42 5.6 37 37 VRB 3 6 30.08 1019 10 16 N/A
8:51 am 08:51 Sunny 74 23.3 41 5 31 31 N N/A 30.10 1019 10 16 N/A
9:51 am 09:51 Sunny 79 26.1 43 6.1 28 28 N N/A 30.11 1020 10 16 N/A
10:51 am 10:51 Sunny 84 28.9 43 6.1 24 24 SW 6 9 30.09 1019 10 16 N/A
11:51 am 11:51 Sunny 88 31.1 41 5 19 19 WNW 3 6 30.07 1018 10 16 N/A
12:51 pm 12:51 Sunny 93 33.9 41 5 16 16 VRB 7 11 30.04 1017 10 16 N/A
1:51 pm 13:51 Sunny 93 33.9 38 3.3 14 14 S 6 9 30.02 1017 10 16 N/A
2:51 pm 14:51 Sunny 94 34.4 38 3.3 14 14 S 3 6 30.00 1016 10 16 N/A
3:51 pm 15:51 Sunny 94 34.4 37 2.8 14 14 ESE 5 7 30.00 1016 10 16 N/A
4:51 pm 16:51 Sunny 94 34.4 37 2.8 14 14 SSW 5 7 29.99 1016 10 16 N/A
5:51 pm 17:51 Sunny 92 33.3 36 2.2 14 14 WSW 5 7 30.00 1016 10 16 N/A
6:51 pm 18:51 Clear 82 27.8 39 3.9 22 22 N N/A 30.01 1016 10 16 N/A
7:51 pm 19:51 Clear 76 24.4 41 5 29 29 N 7 11 30.03 1017 10 16 N/A
8:51 pm 20:51 Clear 75 23.9 40 4.4 28 28 E 8 13 30.04 1017 10 16 N/A
9:51 pm 21:51 Clear 78 25.6 37 2.8 23 23 SE 8 13 30.06 1018 10 16 N/A
10:51 pm 22:51 Clear 79 26.1 41 5 26 26 E 9 15 30.08 1019 10 16 N/A
11:51 pm 23:51 Clear 78 25.6 44 6.7 30 30 E 15 24 30.10 1019 10 16 N/A

Powered by AerisWeather